Location: Fort Wayne
(41.1310°N, 85.1290°W)
Time: 13:48:54
(UTC-04:00)

BREEZE-M DEB (TANK) - Visible Passes

Search period start: 25 July 2016 00:00
Search period end: 04 August 2016 00:00
Orbit: 278 x 13334 km, 49.6° (Epoch: 24 July)

Date Brightness Start Highest point End Pass type
(mag) Time Alt. Az. Time Alt. Az. Time Alt. Az.
25 Jul 4.9 01:20:39 10° W 01:34:44 43° N 01:38:55 10° ENE visible
25 Jul 5.9 21:26:58 10° SW 22:19:42 89° SE 22:28:46 10° ENE visible
26 Jul 3.9 02:36:56 10° WNW 02:44:56 43° N 02:46:34 25° ENE visible
26 Jul 5.5 22:55:21 10° WSW 23:30:35 67° NNW 23:37:28 10° ENE visible
27 Jul 3.7 03:49:34 10° WNW 03:52:40 28° WNW 03:52:40 28° WNW visible
28 Jul 5.2 00:20:59 10° W 00:41:03 50° NNW 00:46:08 10° ENE visible
28 Jul 6.3 20:22:03 10° SW 21:25:03 80° SE 21:35:49 10° ENE visible
29 Jul 4.5 01:40:14 10° WNW 01:51:22 43° N 01:53:56 20° ENE visible
29 Jul 5.8 21:49:53 10° WSW 22:36:21 77° NNW 22:44:34 10° ENE visible
30 Jul 3.6 02:54:30 10° WNW 03:00:07 43° NW 03:00:07 43° NW visible
30 Jul 5.5 23:18:46 10° W 23:47:03 57° NNW 23:53:11 10° ENE visible
01 Aug 4.9 00:41:46 10° WNW 00:57:29 46° N 01:01:27 14° ENE visible
01 Aug 6.2 20:43:14 10° SW 21:41:40 87° NNW 21:51:25 10° ENE visible
02 Aug 3.7 01:58:25 10° WNW 02:07:35 50° NNE 02:07:37 50° NNE visible
02 Aug 5.7 22:13:43 10° WSW 22:52:39 66° NNW 23:00:02 10° ENE visible
03 Aug 4.8 03:11:17 10° WNW 03:13:48 20° WNW 03:13:48 20° WNW visible
